STARLINK-34621

Last updated on Fri Aug 08 2025 00:02:05 GMT+0000 (Coordinated Universal Time)

1 64774U 25147V 25218.91668981 .00012140 00000+0 31302-3 0 9992 2 64774 53.1600 163.2641 0001278 81.8168 75.5678 15.39618294 5829
UTC large
Height (km)
Speed (km/s)
/
Latitude / Longitude
Inclination (degrees)
Orbital Period (minutes)
Azimuth
Elevation
Range (km)
Doppler Factor

Next 0 passes for location: London (51.5072 / 0.1276)

Sorry there are no passes over London.